www.pogodaiklimat.ru

Погода и климат >> Архив погоды >> Пакистан >> Дир


ПОГОДА в Дире

  • Прогноз погоды в Дире
  • Монитор погоды в Дире

АРХИВ ПОГОДЫ в Дире

Время (UTC), дата Ветер
(напр.,м/с)
 
Видим.   Явления Облачность Т
(С)
Тd
(С)
f
(%)
Тe
(С)
Тes
(С)
Комфортность P
(гПа)
Po
(гПа)
Тmin
(С)
Tmax
(С)
R
(мм)
R24
(мм)
S
(см)
09 11.07 ЮВ 1 10 км 4/4 1050 м
[Cu med, cong]
+34.0 +19.5 43 +40 +53 опасность
солнечного
удара
1000.0
12 11.07 ЮЗ 1 4000 м гроза без осадков 9/6 600 м
[Cb cap As op]
+28.9 +16.8 48 +33 +33 очень
душно
718.8 +34.5
15 11.07 штиль 0 4000 м 6/4 900 м
[Cu med, cong As op]
+26.7 +20.7 70 +33 +33 очень
душно
1000.0
18 11.07 штиль 0 4000 м 4/4 900 м
[Sc diur, vesp]
+23.9 +21.1 84 +30 +30 очень
душно
1000.0
21 11.07 штиль 0 4000 м 4/4 300 м
[Sc diur, vesp]
+21.1 +19.5 91 +26 +26 душно 1000.0
00 12.07 штиль 0 4000 м 4/4 900 м
[Sc diur, vesp]
+20.6 +19.0 91 +24 +24 комфорт 718.3
03 12.07 штиль 0 10 км 4/4 1050 м
[Cu med, cong]
+21.1 +18.7 86 +25 +31 комфорт 1000.0 +20.1
06 12.07 Ю 1 10 км 4/4 1050 м
[Cu med, cong]
+28.9 +18.6 54 +34 +49 очень
душно
1000.0
09 12.07 ЮВ 1 10 км 5/5 1050 м
[Cu med, cong]
+32.8 +20.0 47 +39 +49 очень
душно
723.0
12 12.07 ЮЗ 2 10 км 6/6 1050 м
[Cu med, cong]
+32.2 +18.7 45 +37 +39 очень
душно
722.4 +35.0
15 12.07 ЮЗ 1 10 км гроза без осадков 8/5 600 м
[Cb cap As op]
+29.4 +19.4 55 +35 +35 очень
душно
1000.0
18 12.07 З 1 4000 м гроза без осадков 10/6 600 м
[Cb cap As op]
+26.7 +19.6 65 +32 +32 очень
душно
1000.0
21 12.07 З 1 4000 м гроза без осадков 9/5 600 м
[Cb cap As op]
+23.9 +19.5 76 +29 +29 душно 1000.0
00 13.07 штиль 0 4000 м в посл. час гроза 8/4 1050 м
[Sc diur, vesp As op]
+21.7 +19.0 85 +27 +27 душно 1000.0
03 13.07 штиль 0 10 км ясно +22.8 +17.6 72 +28 +37 душно 1000.0 +19.1
06 13.07 З 1 10 км 4/4 300 м
[Cu med, cong]
+29.4 +18.6 52 +34 +49 очень
душно
1000.0
09 13.07 З 1 10 км 5/5 1050 м
[Cu med, cong]
+32.3 +18.7 45 +37 +48 очень
душно
1000.0
12 13.07 З 1 10 км гроза без осадков 8/3 300 м
[Cb cap As op]
+29.4 +16.8 47 +33 +35 душно 1000.0 +33.1
18 13.07 З 1 10 км гроза без осадков 8/5 600 м
[Cb cap As op]
+28.1 +19.1 58 +33 +33 очень
душно
1000.0
21 13.07 штиль 0 4000 м в посл. час гроза 8/4 1050 м
[Sc diur, vesp As op]
+23.3 +18.5 74 +29 +29 душно 1000.0
00 14.07 штиль 0 4000 м 5/3 1050 м
[Sc diur, vesp As op]
+22.2 +19.0 82 +28 +28 душно 1000.0
03 14.07 штиль 0 10 км ясно +23.1 +16.8 68 +28 +37 душно 1000.0 +20.5
06 14.07 З 1 10 км 4/4 1050 м
[Cu med, cong]
+29.8 +18.9 52 +35 +50 очень
душно
1000.0
09 14.07 З 1 10 км 6/4 1050 м
[Sc diur, vesp As op]
+32.2 +18.7 45 +37 +47 очень
душно
1000.0
12 14.07 Ю 1 10 км 6/6 1050 м
[Cu med, cong]
+31.0 +19.3 50 +37 +39 очень
душно
1000.0 +33.5
15 14.07 Ю 1 4000 м гроза, ливневой дождь 10/6 600 м
[Cb cap As op]
+22.2 +20.5 90 +29 +29 очень
душно
1000.0 19
18 14.07 штиль 0 4000 м в посл. час гроза 6/4 1050 м
[Sc diur, vesp As op]
+21.1 +20.3 95 +26 +26 душно 718.6 15
21 14.07 штиль 0 4000 м 6/4 1050 м
[Sc diur, vesp As op]
+20.0 +18.5 91 +23 +23 комфорт 1000.0
00 15.07 штиль 0 4000 м 6/4 1050 м
[Sc diur, vesp As op]
+20.6 +19.5 93 +25 +25 комфорт 1000.0
03 15.07 штиль 0 10 км 8/5 600 м
[Frnb As op]
+22.8 +20.0 84 +29 +32 очень
душно
718.6 +19.5
06 15.07 З 1 10 км 5/5 1050 м
[Cu med, cong]
+28.2 +20.8 64 +35 +47 очень
душно
1000.0
09 15.07 З 1 10 км 6/4 1050 м
[Cu med, cong As op]
+31.0 +19.3 50 +37 +47 очень
душно
1000.0
12 15.07 З 1 10 км 6/4 1050 м
[Cu med, cong As op]
+30.6 +21.0 57 +38 +41 очень
душно
1000.0 +33.1
15 15.07 З 1 10 км 8/4 1050 м
[Sc diur, vesp As op]
+26.9 +19.6 64 +33 +33 очень
душно
1000.0
18 15.07 З 2 4000 м 8/4 1050 м
[Sc diur, vesp As op]
+25.6 +19.3 68 +31 +31 очень
душно
720.2
21 15.07 штиль 0 4000 м 8/4 1050 м
[Sc diur, vesp As op]
+23.9 +19.5 76 +29 +29 душно 1000.0
00 16.07 штиль 0 4000 м 8/4 1050 м
[Sc diur, vesp As op]
+22.2 +19.0 82 +28 +28 душно 1000.0
03 16.07 штиль 0 10 км 8/4 1050 м
[Sc diur, vesp As op]
+23.3 +20.0 82 +30 +33 очень
душно
1000.0 +22.1
06 16.07 ЮЗ 1 10 км 4/4 1050 м
[Cu med, cong]
+28.7 +20.3 60 +35 +50 очень
душно
1000.0
09 16.07 З 1 10 км 5/3 300 м
[Sc diur, vesp As op]
+31.8 +17.8 43 +36 +48 очень
душно
1000.0
12 16.07 З 1 10 км 8/4 1050 м
[Sc diur, vesp As op]
+29.8 +19.8 55 +36 +38 очень
душно
1000.0 +32.5
15 16.07 штиль 0 10 км 9/5 1050 м
[Sc diur, vesp As op]
+27.1 +19.6 64 +33 +33 очень
душно
1000.0
18 16.07 штиль 0 4000 м 9/4 300 м
[Sc diur, vesp As op]
+24.4 +19.5 74 +30 +30 очень
душно
721.1
21 16.07 штиль 0 4000 м 9/5 1050 м
[Sc diur, vesp As op]
+22.8 +20.0 84 +29 +29 очень
душно
1000.0
00 17.07 штиль 0 4000 м 9/4 300 м
[Sc diur, vesp As op]
+21.7 +20.5 93 +27 +27 душно 1000.0
03 17.07 штиль 0 4000 м 10/5 1050 м
[Sc diur, vesp As op]
+23.1 +20.0 83 +30 +31 очень
душно
1000.0 +21.1
06 17.07 З 1 10 км 6/3 300 м
[Cu med, cong As op]
+28.2 +19.1 58 +34 +44 очень
душно
724.1
09 17.07 З 1 10 км 6/4 1050 м
[Cu med, cong As op]
+30.4 +19.8 53 +37 +46 очень
душно
725.4
12 17.07 ЮЗ 1 10 км 6/6 1050 м
[Cu med, cong]
+31.2 +19.3 49 +37 +39 очень
душно
1000.0 +32.1
15 17.07 З 1 10 км 6/4 1050 м
[Sc diur, vesp As op]
+27.8 +20.8 66 +35 +35 очень
душно
1000.0
18 17.07 штиль 0 4000 м 6/4 1050 м
[Sc diur, vesp As op]
+25.6 +20.1 72 +32 +32 очень
душно
722.4
21 17.07 штиль 0 4000 м 6/4 1050 м
[Sc diur, vesp As op]
+23.9 +19.5 76 +29 +29 душно 1000.0
00 18.07 штиль 0 4000 м 6/4 1050 м
[Sc diur, vesp As op]
+22.8 +20.0 84 +29 +29 очень
душно
1000.0
03 18.07 штиль 0 10 км 8/4 1050 м
[Sc diur, vesp As op]
+24.0 +21.1 84 +30 +33 очень
душно
1000.0 +22.5

 

Местоположение метеостанции Дир (Пакистан): широта 35.20 долгота 71.85 высота над уровнем моря 1370 м.

В архиве по умолчанию представлена погода в Дире за последнюю неделю. Архивные данные за месяц целиком и за предыдущие месяцы, начиная с января 2011 года, Вы можете получить, выбрав интересующий диапазон дат из раскрывающегося списка и нажав кнопку "Ввод!".


*Определитесь, кто Вы:
робот инопланетянин человек

Внимание! Время в таблицах - всемирное. Для получения местного времени необходимо прибавить поправку, которая равна 5 ч.

Смотрите также архив погоды в соседних городах и на ближайших метеорологических станциях:

Погода в Мир Хани (Пакистан) (36 км)
Погода в Тимергаре (Пакистан) (41 км)
Погода в Дроше (Пакистан) (42 км)
Погода в Сайду-Шарифе (Пакистан) (69 км)
Погода в Читрале (Пакистан) (72 км)
Погода в Паттане (Пакистан) (105 км)
Погода в Малам Джабба (Пакистан) (108 км)
Погода в Каламе (Пакистан) (124 км)
Погода в Рисалпуре (Пакистан) (125 км)
Погода в Пешаваре (Пакистан) (134 км)

Пояснения к столбцам:

Ветер - указаны скорость ветра в м/с - средняя за 10 мин, порывы в срок и между сроками (в фигурных скобках) и направление, откуда дует ветер: С - северный, СВ - северо-восточный, В - восточный, ЮВ - юго-восточный, Ю - южный, ЮЗ - юго-западный, З - западный, СЗ - северо-западный.
Видимость - горизонтальная дальность видимости в метрах или километрах. При видимости от 1 до 10 км при отсутствии осадков обычно наблюдается дымка, при ухудшении видимости до 1 км и менее - туман. В сухую погоду видимость может ухудшаться дымом, пылью или мглою.
Явления - указаны атмосферные явления, наблюдавшиеся в срок или в последний час перед сроком; фигурными скобками обозначены явления, наблюдавшиеся между сроками (за 1-3 часа до срока); квадратными скобками обозначены град или гололедные отложения с указанием их диаметра в мм.
Облачность - указаны через наклонную черту общая и нижняя облачность в баллах и высота нижней границы облаков в метрах; квадратными скобками обозначены формы облаков: Ci - перистые, Cs - перисто-слоистые, Cc - перисто-кучевые, Ac - высококучевые, As - высокослоистые, Sc - слоисто-кучевые, Ns - слоисто-дождевые, Cu - кучевые, Cb - кучево-дождевые. Подробнее классификацию облаков см. в Атласе облаков (PDF).
T - Температура воздуха - температура, измеренная на высоте 2 м над землей.
Td - Температура точки росы - температура, при понижении до которой содержащийся в воздухе водяной пар достигнет насыщения.
f - Относительная влажность воздуха - влажноcть воздуха, измеренная на высоте 2 м над землей.
Te - Эффективная температура - температура, которую ощущает одетый по сезону человек в тени. Характеристика душности погоды. При расчете учитывается влияние влажности воздуха и скорости ветра на теплоощущения человека.
Tes - Эффективная температура на солнце - температура, которую ощущает человек, с поправкой на солнечный нагрев. Характеристика знойности погоды. Зависит от высоты солнца над горизонтом, облачности и скорости ветра. Ночью, в пасмурную погоду, а также при ветре 12 м/с и более поправка равна нулю.
P - Атмосферное давление - приведенное к уровню моря атмосферное давление.
Po - Атмосферное давление - измеренное на уровне метеостанции атмосферное давление.
Tmin - Минимальная температура - минимум температуры воздуха на высоте 2 м над землей.
Tmax - Максимальная температура - максимум температуры воздуха на высоте 2 м над землей.
R - Количество осадков - Количество выпавших осадков за период времени, мм. При наведении курсора мыши на число - период времени, за который выпало указанное количество осадков.
R24 - Количество осадков - Количество выпавших осадков за 24 часа, мм.
S - Снежный покров - Высота снежного покрова, см. При наведении курсора мыши на число - состояние снежного покрова и степень покрытия местности в баллах.